Overview Statistics Trail Chart Weather Telemetry Raw packets
 

This is the latest recevied weather packets stored in our database for station/object KO4YAW. If no packets are shown the sender has not sent any weather packets the latest 10 day(s).

<< 1 2 3 4 5 >>
Time Temp. Humidity Pressure Rain* Wind** Luminosity Snow
1788650465 33.89° C 19% 1017.3 hPa 0 mm - 314 W/m² -
1788649565 34.44° C 19% 1017.3 hPa 0 mm - 380 W/m² -
1788648665 33.89° C 20% 1017.2 hPa 0 mm - 435 W/m² -
1788647765 33.89° C 19% 1017.2 hPa 0 mm - 472 W/m² -
1788646865 33.89° C 20% 1017.3 hPa 0 mm - 554 W/m² -
1788645965 34.44° C 19% 1017.5 hPa 0 mm - 281 W/m² -
1788645065 34.44° C 19% 1017.7 hPa 0 mm - 434 W/m² -
1788644165 33.89° C 19% 1017.7 hPa 0 mm - 727 W/m² -
1788643265 33.89° C 19% 1017.8 hPa 0 mm - 455 W/m² -
1788642365 33.89° C 20% 1017.9 hPa 0 mm - 487 W/m² -
1788641465 34.44° C 19% 1017.9 hPa 0 mm - 843 W/m² -
1788640565 33.89° C 20% 1018.3 hPa 0 mm - 875 W/m² -
1788639665 33.89° C 19% 1018.5 hPa 0 mm - 862 W/m² -
1788638765 33.33° C 20% 1018.5 hPa 0 mm - 884 W/m² -
1788637865 33.33° C 20% 1018.8 hPa 0 mm - 831 W/m² -
1788636987 33.33° C 20% 1018.9 hPa 0 mm - 563 W/m² -
1788636065 32.78° C 21% 1019 hPa 0 mm - 372 W/m² -
1788635165 32.78° C 21% 1019.1 hPa 0 mm - 387 W/m² -
1788634265 31.67° C 22% 1019.3 hPa 0 mm - 293 W/m² -
1788633365 31.67° C 22% 1019.6 hPa 0 mm - 168 W/m² -
1788632465 31.11° C 23% 1019.7 hPa 0 mm - 285 W/m² -
1788631565 31.11° C 23% 1019.8 hPa 0 mm - 502 W/m² -
1788630665 30.56° C 23% 1020.1 hPa 0 mm - 302 W/m² -
1788629765 30° C 25% 1020.1 hPa 0 mm - 166 W/m² -
1788628865 30° C 26% 1019.9 hPa 0 mm - 386 W/m² -

* Rain since midnight (hover to see other rain measurements)
** Current wind speed in m/s (hover to see current wind gust speed)